Location: Chimay
(50.0486°N, 4.3171°E)
Time: 05:14:00
(UTC+00:00)

USA 234 - Pass Details

Date: 08 August 2020
Orbit: 1100 x 1108 km, 123.0° (Epoch: 17 September)

Event Time Altitude Azimuth Distance (km) Brightness Sun altitude
Exits shadow 22:06:04 27° 188° (S) 1,961 4.1 -20.4°
Maximum altitude 22:08:32 36° 228° (SW) 1,676 4.1 -20.6°
Drops below altitude 10° 22:14:28 10° 293° (WNW) 2,968 6.2 -21.0°
Sets 22:17:13 0° 302° (WNW) 3,930 7.1 -21.2°
